EB1HRW Weather Reports


time (UTC)temp
C
wind
direction
speed
KPH
gust
KPH
rain 1hr
cm
rain 24hr
cm
rain mn
cm
humidity
%
barometer
mb
20260508035400 8 41 1.6 6.4 0.00 0.00 0.00 85 1008.6
20260508033859 8 41 3.2 0.0 0.00 0.00 0.00 84 1008.6
20260508032359 8 41 0.0 6.4 0.00 0.00 0.00 84 1008.5
20260508030859 8 41 4.8 9.7 0.00 0.00 0.00 84 1008.3
20260508025359 9 40 8.0 0.0 0.00 0.00 0.00 83 1008.3
20260508023859 9 38 0.0 0.0 0.00 0.00 0.00 84 1008.3
20260508022359 9 37 0.0 0.0 0.00 0.00 0.00 84 1008.3
20260508020900 9 37 0.0 0.0 0.00 0.00 0.00 83 1008.6
20260508015400 10 37 0.0 0.0 0.00 0.00 0.00 82 1008.6
20260508013901 10 37 0.0 9.7 0.00 0.00 0.00 81 1008.7
20260508012400 10 35 4.8 0.0 0.00 0.00 0.00 80 1009.0
20260508010900 11 135 0.0 0.0 0.00 0.00 0.00 76 1009.2
20260508005400 11 255 0.0 0.0 0.00 0.00 0.00 78 1009.4
20260508003859 11 259 0.0 0.0 0.00 0.00 0.00 75 1009.6
20260508002359 12 264 0.0 0.0 0.00 0.00 0.00 75 1009.6
20260508000859 12 163 0.0 1.6 0.00 0.00 0.00 75 1009.7
20260507235359 12 143 0.0 6.4 0.00 0.00 0.00 75 1009.7
20260507233859 12 155 0.0 4.8 0.00 0.00 0.00 76 1009.8
20260507232359 11 134 0.0 0.0 0.00 0.00 0.00 77 1009.8
20260507230859 11 136 0.0 0.0 0.00 0.00 0.00 77 1009.9
20260507225400 12 153 0.0 0.0 0.00 0.15 0.15 76 1010.1
20260507223900 12 145 0.0 0.0 0.00 0.15 0.15 77 1010.2
20260507222359 12 139 0.0 0.0 0.00 0.15 0.15 76 1010.3
20260507220859 12 139 0.0 0.0 0.00 0.15 0.15 75 1010.1
20260507215359 12 109 0.0 0.0 0.00 0.15 0.15 75 1010.1
20260507213859 12 148 0.0 0.0 0.00 0.15 0.15 76 1010.1
20260507212400 12 97 0.0 0.0 0.00 0.15 0.15 76 1010.1
20260507210900 12 84 0.0 0.0 0.00 0.15 0.15 77 1009.9
20260507205400 12 85 0.0 0.0 0.00 0.15 0.15 76 1009.7
20260507203856 12 248 0.0 0.0 0.00 0.15 0.15 76 1009.7
20260507202357 12 250 0.0 0.0 0.00 0.15 0.15 72 1009.7
20260507200858 12 254 0.0 0.0 0.00 0.15 0.15 75 1009.7
20260507195357 12 248 0.0 19.3 0.00 0.15 0.15 76 1009.7
20260507193858 13 255 6.4 0.0 0.00 0.15 0.15 71 1009.7
20260507192357 13 148 0.0 16.1 0.00 0.15 0.15 68 1009.2
20260507190858 14 246 0.0 12.9 0.00 0.15 0.15 67 1008.9
20260507185357 14 160 0.0 20.9 0.00 0.15 0.15 66 1008.8
20260507183858 15 146 0.0 27.4 0.00 0.15 0.15 64 1008.5
20260507180857 15 101 25.7 35.4 0.00 0.15 0.15 61 1008.2
20260507175358 16 89 24.1 35.4 0.00 0.15 0.15 63 1008.1
20260507173857 16 88 25.7 25.7 0.00 0.15 0.15 57 1008.0
20260507172357 16 89 12.9 29.0 0.00 0.15 0.15 52 1008.1
20260507170857 16 100 19.3 25.7 0.00 0.15 0.15 55 1008.1
20260507165356 16 85 0.0 17.7 0.00 0.15 0.15 59 1008.1
20260507160858 16 51 19.3 22.5 0.00 0.15 0.15 61 1008.0
20260507153857 16 46 17.7 17.7 0.00 0.15 0.15 62 1008.1
20260507152358 16 49 8.0 11.3 0.00 0.15 0.15 56 1008.1
20260507150857 16 48 0.0 8.0 0.00 0.15 0.15 54 1008.0
20260507145357 16 56 0.0 12.9 0.00 0.15 0.15 58 1008.2
20260507143856 15 65 3.2 16.1 0.00 0.15 0.15 63 1008.4
20260507142357 14 169 6.4 22.5 0.15 0.15 0.15 69 1008.3
20260507140858 12 149 11.3 22.5 0.15 0.15 0.15 75 1008.3
20260507135357 12 143 16.1 29.0 0.15 0.15 0.15 73 1008.7
20260507133857 13 144 14.5 45.1 0.15 0.15 0.15 69 1008.9
20260507132356 14 147 25.7 41.8 0.00 0.00 0.00 62 1008.8
20260507130857 18 174 14.5 6.4 0.00 0.00 0.00 47 1008.3
20260507123857 18 55 1.6 12.9 0.00 0.00 0.00 47 1007.9
20260507122356 18 278 6.4 9.7 0.00 0.00 0.00 46 1008.0
20260507120857 18 78 3.2 11.3 0.00 0.00 0.00 46 1008.2
20260507115358 18 240 1.6 8.0 0.00 0.00 0.00 48 1008.5
20260507113857 18 267 0.0 8.0 0.00 0.00 0.00 50 1008.8
20260507112358 18 87 1.6 11.3 0.00 0.00 0.00 50 1008.8
20260507110856 18 91 3.2 9.7 0.00 0.00 0.00 49 1009.0
20260507105357 17 247 0.0 16.1 0.00 0.00 0.00 51 1009.2
20260507103858 17 210 9.7 8.0 0.00 0.00 0.00 52 1009.3
20260507102357 17 150 4.8 9.7 0.00 0.00 0.00 57 1009.5
20260507100857 17 244 3.2 9.7 0.00 0.00 0.00 55 1009.6
20260507095358 17 46 0.0 6.4 0.00 0.00 0.00 58 1009.7
20260507093857 16 44 0.0 4.8 0.00 0.00 0.00 59 1009.8
20260507092356 16 328 0.0 14.5 0.00 0.00 0.00 59 1009.9
20260507090857 15 39 6.4 6.4 0.00 0.00 0.00 63 1009.8
20260507085358 14 45 0.0 8.0 0.00 0.00 0.00 67 1009.8
20260507083856 13 44 0.0 6.4 0.00 0.00 0.00 69 1009.9
20260507082357 13 56 6.4 4.8 0.00 0.00 0.00 69 1010.1
20260507080858 12 242 0.0 12.9 0.00 0.00 0.00 74 1010.1
20260507075358 11 42 9.7 12.9 0.00 0.00 0.00 79 1010.1
20260507073857 10 37 6.4 16.1 0.00 0.00 0.00 82 1010.0
20260507072358 10 54 8.0 19.3 0.00 0.00 0.00 84 1010.0
20260507070856 8 27 11.3 16.1 0.00 0.00 0.00 85 1010.1
20260507065357 8 19 9.7 19.3 0.00 0.00 0.00 85 1010.1
20260507063858 8 40 16.1 12.9 0.00 0.00 0.00 85 1010.1
20260507062356 8 17 6.4 14.5 0.00 0.00 0.00 85 1010.3
20260507060857 8 34 9.7 14.5 0.00 0.00 0.00 85 1010.0
20260507055358 8 48 11.3 6.4 0.00 0.00 0.00 85 1010.0
20260507053857 8 34 0.0 8.0 0.00 0.00 0.00 85 1010.0
20260507052357 8 33 1.6 12.9 0.00 0.00 0.00 85 1010.0
20260507050858 8 53 3.2 16.1 0.00 0.00 0.00 84 1009.9
20260507045357 8 55 6.4 9.7 0.00 0.00 0.00 84 1009.8
20260507043858 7 41 6.4 11.3 0.00 0.00 0.00 84 1010.0
20260507042356 8 51 6.4 9.7 0.00 0.00 0.00 85 1010.1
20260507040857 8 45 4.8 9.7 0.00 0.00 0.00 84 1010.1